Retour au catalogue

STARLINK-35215

ActifCommunicationsSSO
NORAD 65813·PAYLOAD·🇺🇸 United States

Lancé Sep 26, 2025 depuis Vandenberg Space Force Base

Loading…

Prochains Passages (prochaines 24 heures)

TLE

FraisSource: CelesTrak SupGP

Époque: Sep 14, 2026, 22:13 UTC

1 65813C 25218Y   26257.92618056  .00064467  00000+0  20017-2 0  2575
2 65813  97.2846 115.3727 0001664  92.2127  87.6349 15.33398067    10

Suivez STARLINK-35215 en temps réel avec AllMySat

Download on the App Store